GIA176 WIII-WIBB

Flight info

Callsign GIA176
Flight time N/A
Altitude 36000
Route GOMEL T10 OVSET
Aircraft B738/M-SDE2E3FGHIRWXY/LB1

Departure

Time 2026-04-29 12:10
Airport Soekarno-Hatta International Airport (WIII)

Arrival

Time N/A
Airport Sultan Syarif Kasim II International Airport / Roesmin Nurjadin AFB (WIBB)
Time Latitude Longitude Altitude Speed Heading
2026-04-29 11:34 -6.11600 106.66894 48 ft 0 kts 135°
2026-04-29 11:57 -6.11597 106.66890 48 ft 2 kts 137°
2026-04-29 11:57 -6.11585 106.66882 48 ft 2 kts 152°
2026-04-29 11:58 -6.11571 106.66876 48 ft 2 kts 160°
2026-04-29 11:58 -6.11558 106.66870 48 ft 2 kts 157°
2026-04-29 11:58 -6.11544 106.66865 48 ft 2 kts 158°
2026-04-29 11:58 -6.11530 106.66859 48 ft 2 kts 158°
2026-04-29 11:59 -6.11516 106.66856 48 ft 2 kts 184°
2026-04-29 11:59 -6.11501 106.66859 48 ft 2 kts 204°
2026-04-29 11:59 -6.11488 106.66868 48 ft 2 kts 226°
2026-04-29 11:59 -6.11480 106.66878 48 ft 0 kts 245°
2026-04-29 12:00 -6.11478 106.66885 48 ft 1 kts 248°
2026-04-29 12:00 -6.11477 106.66886 48 ft 0 kts 248°
2026-04-29 12:01 -6.11479 106.66883 48 ft 3 kts 248°
2026-04-29 12:02 -6.11496 106.66841 48 ft 7 kts 248°
2026-04-29 12:02 -6.11516 106.66790 48 ft 8 kts 249°
2026-04-29 12:02 -6.11542 106.66728 48 ft 11 kts 248°
2026-04-29 12:02 -6.11573 106.66645 48 ft 13 kts 249°
2026-04-29 12:03 -6.11609 106.66554 48 ft 12 kts 247°
2026-04-29 12:03 -6.11639 106.66479 48 ft 11 kts 249°
2026-04-29 12:03 -6.11645 106.66414 48 ft 6 kts 301°
2026-04-29 12:03 -6.11606 106.66393 48 ft 7 kts 338°
2026-04-29 12:04 -6.11552 106.66370 48 ft 9 kts 338°
2026-04-29 12:04 -6.11480 106.66342 48 ft 12 kts 339°
2026-04-29 12:04 -6.11398 106.66311 48 ft 11 kts 337°
2026-04-29 12:04 -6.11349 106.66265 48 ft 7 kts 274°
2026-04-29 12:05 -6.11368 106.66213 48 ft 11 kts 248°
2026-04-29 12:05 -6.11409 106.66110 48 ft 20 kts 248°
2026-04-29 12:05 -6.11465 106.65968 48 ft 22 kts 249°
2026-04-29 12:05 -6.11527 106.65810 48 ft 26 kts 247°
2026-04-29 12:06 -6.11597 106.65635 48 ft 28 kts 248°
2026-04-29 12:06 -6.11677 106.65440 48 ft 32 kts 250°
2026-04-29 12:06 -6.11764 106.65217 48 ft 37 kts 249°
2026-04-29 12:06 -6.11854 106.64992 48 ft 32 kts 248°
2026-04-29 12:07 -6.11942 106.64770 48 ft 35 kts 248°
2026-04-29 12:07 -6.12033 106.64540 48 ft 34 kts 248°
2026-04-29 12:07 -6.12121 106.64318 48 ft 33 kts 248°
2026-04-29 12:07 -6.12205 106.64091 48 ft 36 kts 244°
2026-04-29 12:08 -6.12261 106.63958 48 ft 8 kts 263°
2026-04-29 12:08 -6.12250 106.63915 48 ft 5 kts 309°
2026-04-29 12:08 -6.12219 106.63898 48 ft 5 kts 337°
2026-04-29 12:08 -6.12152 106.63895 48 ft 13 kts 21°
2026-04-29 12:09 -6.12083 106.63921 48 ft 10 kts 61°
2026-04-29 12:09 -6.12024 106.64071 48 ft 56 kts 68°
2026-04-29 12:09 -6.11776 106.64700 49 ft 136 kts 68°
2026-04-29 12:09 -6.11365 106.65770 370 ft 177 kts 70°
2026-04-29 12:10 -6.11165 106.66922 1415 ft 175 kts 87°
2026-04-29 12:10 -6.11151 106.68110 2246 ft 174 kts 86°
2026-04-29 12:10 -6.10686 106.69205 2902 ft 177 kts 44°
2026-04-29 12:10 -6.09548 106.69733 3306 ft 196 kts
2026-04-29 12:11 -6.08182 106.69460 3771 ft 211 kts 330°
2026-04-29 12:11 -6.07067 106.68447 4355 ft 225 kts 313°
2026-04-29 12:11 -6.05983 106.67345 5363 ft 225 kts 316°
2026-04-29 12:11 -6.04871 106.66264 6323 ft 227 kts 316°
2026-04-29 12:12 -6.03742 106.65170 7249 ft 230 kts 316°
2026-04-29 12:12 -6.02590 106.64055 8155 ft 233 kts 316°
2026-04-29 12:12 -6.01436 106.62939 9031 ft 236 kts 316°
2026-04-29 12:12 -6.00248 106.61790 9900 ft 239 kts 316°
2026-04-29 12:13 -5.99061 106.60643 10737 ft 242 kts 316°
2026-04-29 12:13 -5.97844 106.59467 11566 ft 245 kts 316°
2026-04-29 12:13 -5.96632 106.58295 12367 ft 248 kts 316°
2026-04-29 12:13 -5.95377 106.57083 13167 ft 251 kts 316°
2026-04-29 12:14 -5.94130 106.55878 13935 ft 254 kts 316°
2026-04-29 12:14 -5.92850 106.54641 14696 ft 257 kts 316°
2026-04-29 12:14 -5.91569 106.53404 15431 ft 260 kts 316°
2026-04-29 12:14 -5.90264 106.52143 16154 ft 263 kts 316°
2026-04-29 12:15 -5.88942 106.50867 16878 ft 265 kts 316°
2026-04-29 12:15 -5.87630 106.49599 17557 ft 268 kts 316°
2026-04-29 12:15 -5.86279 106.48295 18233 ft 271 kts 316°
2026-04-29 12:15 -5.84918 106.46980 18890 ft 274 kts 316°
2026-04-29 12:16 -5.83555 106.45664 19523 ft 276 kts 316°
2026-04-29 12:16 -5.82171 106.44327 20145 ft 279 kts 316°
2026-04-29 12:16 -5.80762 106.42967 20757 ft 282 kts 316°
2026-04-29 12:16 -5.79364 106.41618 21341 ft 285 kts 316°
2026-04-29 12:17 -5.77938 106.40241 21918 ft 287 kts 316°
2026-04-29 12:17 -5.76492 106.38845 22480 ft 290 kts 316°
2026-04-29 12:17 -5.75042 106.37445 22953 ft 295 kts 316°
2026-04-29 12:17 -5.73542 106.35998 23007 ft 299 kts 316°
2026-04-29 12:18 -5.72046 106.34554 22995 ft 293 kts 316°
2026-04-29 12:18 -5.70604 106.33163 22999 ft 291 kts 316°
2026-04-29 12:18 -5.69127 106.31737 23000 ft 292 kts 316°
2026-04-29 12:18 -5.67685 106.30345 23001 ft 292 kts 316°
2026-04-29 12:19 -5.66210 106.28923 23000 ft 293 kts 316°
2026-04-29 12:19 -5.64752 106.27517 23000 ft 293 kts 316°
2026-04-29 12:19 -5.63283 106.26099 23000 ft 293 kts 316°
2026-04-29 12:19 -5.61804 106.24674 23000 ft 293 kts 316°
2026-04-29 12:20 -5.60355 106.23276 23000 ft 292 kts 316°
2026-04-29 12:20 -5.58894 106.21867 23000 ft 293 kts 316°
2026-04-29 12:20 -5.57423 106.20448 23000 ft 293 kts 316°
2026-04-29 12:20 -5.55957 106.19034 23000 ft 293 kts 316°
2026-04-29 12:21 -5.54498 106.17628 23000 ft 293 kts 316°
2026-04-29 12:21 -5.53036 106.16218 23000 ft 293 kts 316°
2026-04-29 12:21 -5.51551 106.14786 23000 ft 293 kts 316°
2026-04-29 12:21 -5.50087 106.13375 23000 ft 293 kts 316°
2026-04-29 12:22 -5.48637 106.11977 23000 ft 293 kts 316°
2026-04-29 12:22 -5.47161 106.10555 23000 ft 293 kts 316°
2026-04-29 12:22 -5.45707 106.09154 23000 ft 293 kts 316°
2026-04-29 12:22 -5.44235 106.07735 23000 ft 293 kts 316°
2026-04-29 12:23 -5.42767 106.06320 23000 ft 293 kts 316°
2026-04-29 12:23 -5.41305 106.04911 23000 ft 293 kts 316°
2026-04-29 12:23 -5.39839 106.03499 23000 ft 293 kts 316°
2026-04-29 12:23 -5.38370 106.02084 23000 ft 293 kts 316°
2026-04-29 12:24 -5.36913 106.00680 23000 ft 293 kts 316°
2026-04-29 12:24 -5.35451 105.99271 23000 ft 293 kts 316°
2026-04-29 12:24 -5.33984 105.97859 23000 ft 293 kts 316°
2026-04-29 12:24 -5.32524 105.96452 23000 ft 293 kts 316°
2026-04-29 12:25 -5.31063 105.95046 23000 ft 293 kts 316°
2026-04-29 12:25 -5.29595 105.93632 23000 ft 293 kts 316°
2026-04-29 12:25 -5.26658 105.90803 23000 ft 293 kts 316°
2026-04-29 12:26 -5.25205 105.89405 23000 ft 293 kts 316°
2026-04-29 12:26 -5.23722 105.87978 23000 ft 293 kts 316°
2026-04-29 12:26 -5.22268 105.86578 23000 ft 293 kts 316°
2026-04-29 12:26 -5.20789 105.85154 23000 ft 293 kts 316°
2026-04-29 12:27 -5.19329 105.83759 22999 ft 293 kts 317°
2026-04-29 12:27 -5.17744 105.82465 23094 ft 299 kts 324°
2026-04-29 12:27 -5.16069 105.81285 23820 ft 294 kts 325°
2026-04-29 12:27 -5.14391 105.80092 24266 ft 301 kts 324°
2026-04-29 12:28 -5.12695 105.78881 24812 ft 302 kts 324°
2026-04-29 12:28 -5.10982 105.77660 25343 ft 304 kts 324°
2026-04-29 12:28 -5.09262 105.76437 25825 ft 307 kts 324°
2026-04-29 12:28 -5.07508 105.75188 26328 ft 309 kts 324°
2026-04-29 12:29 -5.05761 105.73945 26794 ft 311 kts 324°
2026-04-29 12:29 -5.03999 105.72691 27256 ft 313 kts 324°
2026-04-29 12:29 -5.02225 105.71429 27703 ft 316 kts 324°
2026-04-29 12:29 -5.00419 105.70145 28144 ft 318 kts 324°
2026-04-29 12:30 -4.98635 105.68877 28567 ft 320 kts 324°
2026-04-29 12:30 -4.96797 105.67569 28988 ft 323 kts 324°
2026-04-29 12:30 -4.94980 105.66278 29393 ft 325 kts 324°
2026-04-29 12:30 -4.93122 105.64957 29795 ft 327 kts 324°
2026-04-29 12:31 -4.91273 105.63642 30182 ft 329 kts 324°
2026-04-29 12:31 -4.89410 105.62318 30564 ft 331 kts 324°
2026-04-29 12:31 -4.87542 105.60990 30933 ft 333 kts 324°
2026-04-29 12:31 -4.85639 105.59638 31301 ft 335 kts 324°
2026-04-29 12:32 -4.83731 105.58282 31659 ft 337 kts 324°
2026-04-29 12:32 -4.81826 105.56928 32008 ft 339 kts 324°
2026-04-29 12:32 -4.79900 105.55559 32352 ft 341 kts 324°
2026-04-29 12:32 -4.77975 105.54192 32698 ft 343 kts 324°
2026-04-29 12:33 -4.76023 105.52805 33043 ft 344 kts 324°
2026-04-29 12:33 -4.74071 105.51417 33367 ft 346 kts 324°
2026-04-29 12:33 -4.72126 105.50036 33683 ft 348 kts 324°
2026-04-29 12:33 -4.70132 105.48620 33997 ft 350 kts 324°
2026-04-29 12:34 -4.68156 105.47216 34298 ft 351 kts 324°
2026-04-29 12:34 -4.66179 105.45812 34593 ft 353 kts 324°
2026-04-29 12:34 -4.64172 105.44386 34882 ft 355 kts 324°
2026-04-29 12:34 -4.62155 105.42954 35173 ft 357 kts 324°
2026-04-29 12:35 -4.60113 105.41504 35467 ft 358 kts 324°
2026-04-29 12:35 -4.58094 105.40071 35743 ft 360 kts 324°
2026-04-29 12:35 -4.56035 105.38609 35980 ft 363 kts 324°
2026-04-29 12:36 -4.51833 105.35627 36005 ft 380 kts 324°
2026-04-29 12:36 -4.47436 105.32507 36002 ft 397 kts 325°
2026-04-29 12:37 -4.42861 105.29261 36001 ft 413 kts 325°
2026-04-29 12:37 -4.38108 105.25890 36000 ft 428 kts 325°
2026-04-29 12:38 -4.33183 105.22398 36000 ft 441 kts 325°
2026-04-29 12:38 -4.28106 105.18799 36000 ft 453 kts 325°
2026-04-29 12:39 -4.22918 105.15121 36000 ft 464 kts 325°
2026-04-29 12:39 -4.17639 105.11379 36000 ft 472 kts 324°
2026-04-29 12:40 -4.12257 105.07564 35998 ft 473 kts 324°
2026-04-29 12:40 -4.07190 105.03423 36000 ft 472 kts 317°
2026-04-29 12:41 -4.02446 104.98928 35999 ft 472 kts 317°
2026-04-29 12:41 -3.97656 104.94437 35999 ft 472 kts 317°
2026-04-29 12:42 -3.92887 104.89970 35999 ft 472 kts 317°
2026-04-29 12:42 -3.88108 104.85495 35999 ft 472 kts 317°
2026-04-29 12:43 -3.83330 104.81023 36000 ft 472 kts 317°
2026-04-29 12:43 -3.78539 104.76540 35999 ft 472 kts 317°
2026-04-29 12:44 -3.73752 104.72063 36000 ft 472 kts 317°
2026-04-29 12:44 -3.68956 104.67580 36000 ft 472 kts 317°
2026-04-29 12:45 -3.64181 104.63115 35999 ft 472 kts 317°
2026-04-29 12:45 -3.59411 104.58656 36000 ft 472 kts 317°
2026-04-29 12:46 -3.54610 104.54170 36000 ft 472 kts 317°
2026-04-29 12:46 -3.49821 104.49694 35999 ft 472 kts 317°
2026-04-29 12:47 -3.45066 104.45252 36000 ft 472 kts 317°
2026-04-29 12:47 -3.40251 104.40753 36000 ft 472 kts 317°
2026-04-29 12:48 -3.35483 104.36299 35999 ft 472 kts 317°
2026-04-29 12:48 -3.30697 104.31830 36000 ft 472 kts 317°
2026-04-29 12:49 -3.25903 104.27354 36000 ft 472 kts 317°
2026-04-29 12:49 -3.21105 104.22875 36000 ft 472 kts 317°
2026-04-29 12:50 -3.16339 104.18425 36000 ft 472 kts 317°
2026-04-29 12:50 -3.11549 104.13953 35999 ft 472 kts 317°
2026-04-29 12:51 -3.06753 104.09478 36000 ft 472 kts 317°
2026-04-29 12:51 -3.01973 104.05017 36000 ft 472 kts 317°
2026-04-29 12:52 -2.97170 104.00536 36000 ft 472 kts 317°
2026-04-29 12:52 -2.92406 103.96092 36000 ft 472 kts 317°
2026-04-29 12:53 -2.87612 103.91620 35999 ft 472 kts 317°
2026-04-29 12:53 -2.82826 103.87156 36000 ft 472 kts 317°
2026-04-29 12:54 -2.78061 103.82715 36001 ft 472 kts 317°
2026-04-29 12:54 -2.73267 103.78257 35999 ft 472 kts 317°
2026-04-29 12:55 -2.68481 103.73787 35999 ft 472 kts 317°
2026-04-29 12:55 -2.63682 103.69310 36000 ft 472 kts 317°
2026-04-29 12:56 -2.58901 103.64852 36000 ft 472 kts 317°
2026-04-29 12:56 -2.54126 103.60401 36000 ft 472 kts 317°
2026-04-29 12:57 -2.49324 103.55925 36000 ft 472 kts 317°
2026-04-29 12:57 -2.44542 103.51469 35999 ft 472 kts 317°
2026-04-29 12:58 -2.39756 103.47009 36000 ft 472 kts 317°
2026-04-29 12:58 -2.34986 103.42565 36000 ft 472 kts 317°
2026-04-29 12:59 -2.30183 103.38086 36000 ft 472 kts 317°
2026-04-29 12:59 -2.25420 103.33635 35999 ft 472 kts 317°
2026-04-29 13:00 -2.20642 103.29171 36000 ft 472 kts 317°
2026-04-29 13:00 -2.15847 103.24693 36000 ft 472 kts 317°
2026-04-29 13:01 -2.11080 103.20239 36000 ft 472 kts 317°
2026-04-29 13:01 -2.06270 103.15748 35999 ft 472 kts 317°
2026-04-29 13:02 -2.01497 103.11291 36000 ft 472 kts 317°
2026-04-29 13:02 -1.96728 103.06838 36000 ft 472 kts 317°
2026-04-29 13:03 -1.91931 103.02359 36000 ft 472 kts 317°
2026-04-29 13:03 -1.87149 102.97894 35999 ft 472 kts 317°
2026-04-29 13:04 -1.82384 102.93446 36000 ft 472 kts 317°
2026-04-29 13:04 -1.77583 102.88966 36000 ft 472 kts 317°
2026-04-29 13:05 -1.72815 102.84515 36000 ft 472 kts 317°
2026-04-29 13:05 -1.68038 102.80057 36000 ft 472 kts 317°
2026-04-29 13:06 -1.63252 102.75590 35999 ft 472 kts 317°
2026-04-29 13:06 -1.58358 102.71259 35998 ft 472 kts 323°
2026-04-29 13:07 -1.52616 102.68160 36000 ft 472 kts 341°
2026-04-29 13:07 -1.46375 102.66314 36001 ft 472 kts 343°
2026-04-29 13:08 -1.40078 102.64455 35999 ft 472 kts 343°
2026-04-29 13:08 -1.33827 102.62608 35999 ft 472 kts 343°
2026-04-29 13:09 -1.27549 102.60757 35999 ft 472 kts 343°
2026-04-29 13:09 -1.21287 102.58910 36000 ft 472 kts 343°
2026-04-29 13:10 -1.15008 102.57059 35999 ft 472 kts 343°
2026-04-29 13:10 -1.08739 102.55211 36000 ft 472 kts 343°
2026-04-29 13:11 -1.02460 102.53361 35999 ft 472 kts 343°
2026-04-29 13:11 -0.96181 102.51511 36000 ft 472 kts 343°
2026-04-29 13:12 -0.89906 102.49662 36000 ft 472 kts 343°
2026-04-29 13:12 -0.83619 102.47810 35999 ft 472 kts 343°
2026-04-29 13:13 -0.77326 102.45956 36000 ft 472 kts 343°